FW5697 Weather Reports


Display with metric or nautical units.
time (UTC)temp
F
wind
direction
speed
MPH
gust
MPH
rain 1hr
in
rain 24hr
in
rain mn
in
humidity
%
barometer
mb
20260507090027 66 0 0.0 4.0 0.01 0.49 0.34 97 1010.3
20260507084532 66 198 1.0 3.0 0.01 0.49 0.34 97 1010.9
20260507083029 66 197 1.0 3.0 0.01 0.49 0.34 97 1011.0
20260507081528 66 0 0.0 2.0 0.01 0.49 0.34 97 1010.4
20260507080029 66 186 1.0 3.0 0.05 0.48 0.33 97 1010.7
20260507074528 66 215 1.0 4.0 0.08 0.48 0.33 96 1010.9
20260507073029 66 184 1.0 3.0 0.09 0.48 0.33 96 1010.8
20260507071528 66 0 0.0 5.0 0.10 0.48 0.33 96 1010.5
20260507070034 66 192 2.0 5.0 0.09 0.43 0.28 96 1010.1
20260507064528 66 213 2.0 6.0 0.09 0.40 0.25 96 1010.5
20260507063041 67 192 2.0 5.0 0.14 0.39 0.24 96 1010.9
20260507061533 67 0 2.0 8.0 0.17 0.38 0.23 95 1011.3
20260507060038 67 189 1.0 5.0 0.16 0.34 0.19 95 1011.1
20260507054526 67 166 3.0 7.0 0.14 0.31 0.16 95 1011.4
20260507053030 67 200 2.0 6.0 0.09 0.25 0.10 95 1012.8
20260507051528 68 217 2.0 5.0 0.05 0.21 0.06 94 1013.1
20260507050034 68 207 2.0 6.0 0.03 0.18 0.03 94 1012.8
20260507044530 68 206 2.0 9.0 0.02 0.17 0.02 93 1012.3
20260507043028 68 198 1.0 4.0 0.03 0.16 0.01 94 1012.5
20260507041530 68 200 1.0 4.0 0.04 0.16 0.01 94 1012.8
20260507040029 68 209 1.0 4.0 0.03 0.15 0.00 94 1012.2
20260507034534 69 0 0.0 3.0 0.15 0.15 0.15 93 1012.2
20260507033030 69 268 1.0 4.0 0.13 0.13 0.13 93 1011.8
20260507031529 70 189 1.0 6.0 0.12 0.12 0.12 92 1012.8
20260507030027 70 210 2.0 6.0 0.12 0.12 0.12 90 1013.0
20260507024530 71 198 1.0 4.0 0.00 0.00 0.00 87 1014.4
20260507023030 72 197 0.0 3.0 0.00 0.00 0.00 86 1012.5
20260507021531 73 197 0.0 2.0 0.00 0.00 0.00 82 1012.5
20260507020039 75 197 0.0 1.0 0.00 0.00 0.00 79 1012.7
20260507014529 75 0 0.0 2.0 0.00 0.00 0.00 77 1012.4
20260507013044 76 0 0.0 2.0 0.00 0.00 0.00 75 1012.9
20260507011530 76 197 0.0 2.0 0.00 0.00 0.00 75 1012.5
20260507010036 76 0 0.0 3.0 0.00 0.00 0.00 74 1012.4
20260507004530 77 204 1.0 4.0 0.00 0.00 0.00 73 1012.5
20260507003029 78 196 2.0 5.0 0.00 0.00 0.00 71 1012.9
20260507001530 78 208 1.0 8.0 0.00 0.00 0.00 70 1012.5
20260507000028 78 211 1.0 4.0 0.00 0.00 0.00 71 1012.5
20260506234535 79 206 1.0 6.0 0.00 0.00 0.00 70 1011.9
20260506233046 79 224 1.0 3.0 0.00 0.00 0.00 69 1012.2
20260506231529 79 0 0.0 4.0 0.00 0.00 0.00 68 1011.6
20260506230029 80 175 2.0 9.0 0.00 0.00 0.00 67 1011.9
20260506224528 80 201 3.0 10.0 0.00 0.00 0.00 67 1012.3
20260506223051 81 188 3.0 8.0 0.00 0.00 0.00 65 1012.3
20260506221530 82 280 2.0 7.0 0.00 0.00 0.00 65 1011.8
20260506220031 81 136 2.0 6.0 0.00 0.00 0.00 66 1011.9
20260506214527 82 207 1.0 10.0 0.00 0.00 0.00 64 1012.1
20260506213027 83 172 1.0 8.0 0.00 0.00 0.00 64 1011.9
20260506211531 83 189 3.0 9.0 0.00 0.00 0.00 61 1012.0
20260506210035 83 219 3.0 6.0 0.00 0.00 0.00 62 1012.2
20260506204534 82 188 3.0 7.0 0.00 0.00 0.00 62 1012.6
20260506203028 82 211 2.0 6.0 0.00 0.00 0.00 62 1012.9
20260506201532 82 194 2.0 8.0 0.00 0.00 0.00 63 1012.9
20260506200038 82 164 3.0 8.0 0.00 0.00 0.00 60 1013.2
20260506194528 82 244 4.0 11.0 0.00 0.00 0.00 59 1013.5
20260506193030 82 240 3.0 9.0 0.00 0.00 0.00 60 1013.7
20260506191527 82 185 3.0 10.0 0.00 0.00 0.00 58 1014.2
20260506190028 82 185 3.0 7.0 0.00 0.00 0.00 61 1014.1
20260506184526 82 156 2.0 9.0 0.00 0.00 0.00 61 1014.5
20260506183033 82 191 3.0 11.0 0.00 0.00 0.00 59 1014.4
20260506181531 81 184 2.0 8.0 0.00 0.00 0.00 62 1014.5
20260506180030 81 217 3.0 9.0 0.00 0.00 0.00 60 1014.5
20260506174527 81 0 2.0 7.0 0.00 0.00 0.00 58 1014.4
20260506173038 80 153 3.0 9.0 0.00 0.00 0.00 56 1014.6
20260506171530 78 198 2.0 6.0 0.00 0.00 0.00 63 1014.7
20260506170027 77 219 2.0 9.0 0.00 0.00 0.00 63 1015.2
20260506164530 77 138 2.0 9.0 0.00 0.00 0.00 65 1015.1
20260506163030 76 239 3.0 8.0 0.00 0.00 0.00 66 1015.4
20260506161531 74 183 2.0 7.0 0.00 0.00 0.00 68 1015.8
20260506160029 73 0 2.0 8.0 0.00 0.00 0.00 70 1015.9
20260506154530 73 248 2.0 7.0 0.00 0.00 0.00 70 1016.0
20260506153029 73 246 3.0 8.0 0.00 0.00 0.00 69 1016.2
20260506151528 73 113 3.0 9.0 0.00 0.00 0.00 69 1015.8
20260506150030 72 190 1.0 6.0 0.00 0.00 0.00 73 1015.8
20260506144531 72 154 3.0 10.0 0.00 0.00 0.00 75 1015.6
20260506143034 71 155 2.0 7.0 0.00 0.00 0.00 78 1015.5
20260506141528 70 198 2.0 8.0 0.00 0.00 0.00 80 1015.2
20260506140028 70 264 3.0 6.0 0.00 0.00 0.00 82 1015.1
20260506134528 69 194 3.0 9.0 0.00 0.00 0.00 82 1014.9
20260506133031 68 249 2.0 8.0 0.00 0.00 0.00 83 1014.9
20260506131533 67 187 1.0 5.0 0.00 0.00 0.00 85 1014.9
20260506130030 66 0 1.0 4.0 0.00 0.00 0.00 85 1015.0
20260506124534 66 172 1.0 5.0 0.00 0.00 0.00 86 1014.8
20260506123037 65 234 1.0 5.0 0.00 0.00 0.00 86 1014.8
20260506121529 64 205 1.0 4.0 0.00 0.00 0.00 86 1014.9
20260506120036 63 0 0.0 2.0 0.00 0.00 0.00 86 1014.7
20260506114530 63 0 0.0 2.0 0.00 0.00 0.00 86 1014.6
20260506113028 63 211 0.0 2.0 0.00 0.00 0.00 86 1014.7
20260506111529 63 0 0.0 2.0 0.00 0.00 0.00 85 1014.4
20260506110028 63 203 0.0 2.0 0.00 0.00 0.00 85 1014.2
20260506104529 63 188 0.0 2.0 0.00 0.00 0.00 85 1013.8
20260506103032 63 221 0.0 2.0 0.00 0.00 0.00 84 1013.4
20260506101530 63 0 1.0 2.0 0.00 0.00 0.00 84 1013.2
20260506100029 63 0 0.0 3.0 0.00 0.00 0.00 83 1013.5
20260506094535 63 0 0.0 3.0 0.00 0.00 0.00 82 1013.3
20260506093041 62 214 1.0 3.0 0.00 0.00 0.00 82 1013.1
20260506091526 62 0 1.0 2.0 0.00 0.00 0.00 81 1013.1